Location: Zilina
(0.0000°N, 18.7333°E)
Time: 16:52:06
(UTC+02:00)

Cosmos 2112 Rocket - Pass Details

Date: 19 February 2019
Orbit: 757 x 786 km, 74.1° (Epoch: 16 October)

Event Time Altitude Azimuth Distance (km) Brightness Sun altitude
Rises 19:40:35 0° 187° (S) 3,262 7.5 -24.9°
Reaches altitude 10° 19:42:59 10° 184° (S) 2,336 6.7 -25.5°
Enters shadow 19:47:02 50° 159° (SSE) 991 4.4 -26.5°
